{"data":{"norad_id":68234,"epoch":"2026-05-25T03:32:38.224032Z","epoch_age_seconds":59532,"freshness":"FRESH","line1":"1 68234U 26054C   26145.14766463  .00042169  00000+0  97207-3 0  9994","line2":"2 68234  53.1592 299.9457 0000730 105.1178 254.9908 15.42193700 10727","mean_motion":15.421937,"eccentricity":7.3e-5,"inclination_deg":53.1592,"raan_deg":299.9457,"arg_perigee_deg":105.1178,"mean_anomaly_deg":254.9908,"bstar":0.00097207,"rev_number":1072,"period_min":93.373484796365,"perigee_km":439.13863316257,"apogee_km":440.13402806883,"semimajor_km":6817.7733306157,"source":"CELESTRAK","updated_at":"2026-05-25T13:38:21.883185Z"}}